[[{"header":{"parameterUnit":"m.s-1","parameterCategory":2,"la1":30.2991,"la2":30.254,"lo1":-89.0895,"lo2":-89.0444,"dy":0.0017,"dx":0.0017,"nx":28,"ny":28,"refTime":"2025-02-27T09:00:00:Z","depth":"0","parameterNumber":2,"parameterNumberName":"U-component_of_CURRENTS"},"data":[0,0,0,0,0,0,0,0,0,0,0,0,0,0,0,0,0,0,0,0,0,0,0,0,0,0,0,0,0,0,0,0,0,0,0,0,0,0,0,0,0,0,0,0,0,0,0,0,0,0,0,0,0,0,0,0,0,0,-0.2545,-0.2546,0,-0.2572,-0.2572,-0.2572,-0.2533,-0.2532,-0.2531,-0.253,-0.2445,-0.2444,-0.2443,0,0,0,0,0,0,0,0,0,0,0,0,0,-0.2463,-0.2464,-0.2545,-0.2546,-0.2547,-0.2573,-0.2572,-0.2572,-0.2533,-0.2532,-0.2531,-0.253,-0.2446,-0.2444,-0.2442,0,0,0,0,0,0,0,0,0,0,0,0,0,-0.249,-0.2464,-0.2545,-0.2535,-0.2534,-0.2573,-0.2572,-0.2572,-0.2533,-0.2532,-0.2531,-0.253,-0.2447,-0.2444,-0.2442,-0.2455,0,0,-0.2436,-0.2435,0,0,0,0,0,0,0,0,-0.2488,-0.2492,-0.2535,-0.2536,-0.2535,-0.2553,-0.2513,-0.2529,-0.2534,-0.2528,-0.253,-0.2529,-0.2476,-0.2471,-0.2473,-0.2451,-0.2447,-0.2435,-0.2434,-0.2433,-0.2433,0,0,0,0,0,0,0,-0.2487,-0.2491,-0.255,-0.2537,-0.2537,-0.253,-0.2532,-0.2516,-0.2502,-0.2528,-0.2527,-0.2539,-0.2474,-0.2475,-0.247,-0.2446,-0.2435,-0.2434,-0.2432,-0.2431,-0.2357,-0.2356,0,0,0,0,0,0,-0.2496,-0.2489,-0.255,-0.2552,-0.2515,-0.2533,-0.2535,-0.2544,-0.2505,-0.25,-0.254,-0.2537,-0.2479,-0.2473,-0.2467,-0.2419,-0.2433,-0.2431,-0.243,-0.2358,-0.2357,-0.2356,0,0,0,0,0,0,-0.2494,-0.2501,-0.2549,-0.2526,-0.2532,-0.2537,-0.2547,-0.2545,-0.2542,-0.2516,-0.2508,-0.2539,-0.2478,-0.247,-0.2429,-0.2418,-0.243,-0.2428,-0.2359,-0.2357,-0.2357,-0.2363,0,0,0,0,0,0,-0.2492,-0.25,-0.2503,-0.2526,-0.2534,-0.255,-0.2549,-0.2547,-0.2555,-0.2551,-0.2512,-0.2504,-0.2476,-0.2433,-0.2427,-0.2415,-0.2426,-0.2359,-0.2358,-0.2357,-0.2363,-0.2362,-0.2361,0,0,0,0,0,-0.2488,-0.2506,-0.2503,-0.251,-0.254,-0.2551,-0.2552,-0.2548,-0.2556,-0.2542,-0.2516,-0.2504,-0.2421,-0.2431,-0.2424,-0.2411,-0.236,-0.2358,-0.2357,-0.2364,-0.2362,-0.2361,0,0,0,0,0,0,-0.2488,-0.2505,-0.2502,-0.2527,-0.2527,-0.2545,-0.255,-0.2554,-0.2529,-0.2524,-0.2498,-0.2486,-0.2445,-0.243,-0.2442,-0.2385,-0.2389,-0.2386,-0.2396,-0.2394,-0.2393,-0.2395,-0.2425,0,0,0,0,0,-0.2489,-0.2488,-0.2508,-0.2522,-0.253,-0.2541,-0.2547,-0.2543,-0.2535,-0.2524,-0.2497,-0.2468,-0.2438,-0.2417,-0.2386,-0.2361,-0.2347,-0.2348,-0.2347,-0.2346,-0.2342,-0.2328,-0.2325,-0.2351,-0.2351,-0.2351,0,0,-0.2491,-0.2503,-0.2502,-0.2519,-0.2526,-0.2519,-0.2539,-0.2548,-0.2531,-0.2518,-0.248,-0.2462,-0.243,-0.2391,-0.2373,-0.2375,-0.2326,-0.2344,-0.2343,-0.234,-0.2326,-0.2323,-0.2321,-0.235,-0.235,-0.2351,0,0,-0.2482,-0.251,-0.2493,-0.2493,-0.2502,-0.2512,-0.2516,-0.2524,-0.2514,-0.2485,-0.247,-0.2445,-0.24,-0.2374,-0.2357,-0.2335,-0.2321,-0.2327,-0.2321,-0.2307,-0.2305,-0.2303,-0.2265,-0.226,-0.2326,-0.2326,-0.2326,0,-0.2476,-0.2469,-0.2491,-0.2474,-0.248,-0.2508,-0.2494,-0.2492,-0.2476,-0.2473,-0.2462,-0.2415,-0.2389,-0.2356,-0.2342,-0.2332,-0.2317,-0.2332,-0.2307,-0.2305,-0.2303,-0.2264,-0.2258,-0.2326,-0.2326,-0.2326,-0.2326,0,-0.2446,-0.2437,-0.2439,-0.2419,-0.2427,-0.2428,-0.2438,-0.2434,-0.244,-0.2436,-0.2408,-0.2379,-0.2352,-0.2343,-0.2331,-0.2308,-0.2297,-0.231,-0.2315,-0.2301,-0.226,-0.2254,-0.2326,-0.2326,-0.2326,-0.2326,0,0,-0.2428,-0.2414,-0.2411,-0.2392,-0.2403,-0.2407,-0.24,-0.2402,-0.2402,-0.2381,-0.237,-0.233,-0.2337,-0.2319,-0.2311,-0.2299,-0.2265,-0.2299,-0.2298,-0.2266,-0.2216,-0.2116,-0.2099,-0.228,-0.228,-0.2279,-0.2187,0,-0.2388,-0.2345,-0.236,-0.2327,-0.2312,-0.2346,-0.234,-0.2346,-0.2354,-0.2346,-0.2342,-0.232,-0.2322,-0.2313,-0.2301,-0.2287,-0.2252,-0.2288,-0.2228,-0.2226,-0.2144,-0.209,-0.2012,-0.1915,-0.2181,-0.218,-0.2179,0,-0.234,-0.2322,-0.2279,-0.228,-0.2283,-0.2273,-0.2297,-0.2292,-0.2304,-0.2311,-0.2308,-0.231,-0.2292,-0.2293,-0.2251,-0.2278,-0.2236,-0.2218,-0.2215,-0.2116,-0.2114,-0.1974,-0.1894,-0.1891,-0.2169,-0.217,-0.2171,0,-0.2293,-0.227,-0.2239,-0.2233,-0.2235,-0.2236,-0.2253,-0.2275,-0.2279,-0.2289,-0.2291,-0.2286,-0.2271,-0.2247,-0.2209,-0.2233,-0.2151,-0.2181,-0.204,-0.2033,-0.1948,-0.1934,-0.1863,-0.212,-0.212,-0.2121,-0.2121,0,-0.2236,-0.2212,-0.2212,-0.2185,-0.2171,-0.2198,-0.2195,-0.2214,-0.2238,-0.2233,-0.2266,-0.2251,-0.226,-0.2223,-0.2194,-0.2084,-0.2133,-0.2014,-0.1996,-0.1944,-0.1931,-0.1912,-0.1951,-0.2117,-0.2118,-0.2118,-0.2119,0,-0.2168,-0.2166,-0.2126,-0.2127,-0.2132,-0.2121,-0.2156,-0.2153,-0.2194,-0.2187,-0.2189,-0.2214,-0.216,-0.2136,-0.2082,-0.2039,-0.1926,-0.1906,-0.1827,-0.18,-0.1667,-0.1709,-0.1618,-0.1571,-0.1739,-0.1736,-0.1734,0,-0.2128,-0.2089,-0.2071,-0.2051,-0.2047,-0.2049,-0.205,-0.2108,-0.2114,-0.2153,-0.2136,-0.2103,-0.204,-0.1923,-0.1843,-0.1735,-0.1774,-0.1609,-0.1632,-0.1617,-0.1653,-0.1703,-0.1676,-0.1522,-0.1517,-0.1514,-0.1511,0,-0.2036,-0.2024,-0.1984,-0.1946,-0.1934,-0.1935,-0.1949,-0.1952,-0.2014,-0.2018,-0.1995,-0.1951,-0.1837,-0.1695,-0.1564,-0.1505,-0.1583,-0.1532,-0.1549,-0.1484,-0.1504,-0.1464,-0.1622,-0.1481,-0.1484,-0.1486,-0.1488,-0.1489,-0.1968,-0.1913,-0.1856,-0.1811,-0.1807,-0.1792,-0.1751,-0.1793,-0.1782,-0.1763,-0.1814,-0.1712,-0.1619,-0.1412,-0.1345,-0.1229,-0.131,-0.1217,-0.1269,-0.1321,-0.127,-0.1334,-0.1157,-0.1159,-0.116,-0.116,-0.1161,0,-0.1868,-0.1792,-0.1733,-0.1665,-0.1612,-0.166,-0.1649,-0.1592,-0.1538,-0.1561,-0.1522,-0.1409,-0.1268,-0.1199,-0.1083,-0.1017,-0.102,-0.1012,-0.1095,-0.1079,-0.1148,-0.1132,-0.0902,-0.0902,-0.0902,-0.0902,-0.0902,-0.0902,-0.181,-0.1688,-0.1629,-0.1473,-0.1437,-0.1329,-0.1294,-0.1245,-0.1222,-0.1133,-0.1089,-0.1053,-0.1061,-0.1136,-0.1041,-0.0977,-0.099,-0.0944,-0.0983,-0.1079,-0.1104,-0.1129,-0.1121,-0.0892,-0.0893,-0.0873,-0.0873,-0.0873]},{"header":{"parameterUnit":"m.s-1","parameterCategory":2,"la1":30.2991,"la2":30.254,"lo1":-89.0895,"lo2":-89.0444,"dy":0.0017,"dx":0.0017,"nx":28,"ny":28,"refTime":"2025-02-27T09:00:00:Z","depth":"0","parameterNumber":3,"parameterNumberName":"V-component_of_CURRENTS"},"data":[0,0,0,0,0,0,0,0,0,0,0,0,0,0,0,0,0,0,0,0,0,0,0,0,0,0,0,0,0,0,0,0,0,0,0,0,0,0,0,0,0,0,0,0,0,0,0,0,0,0,0,0,0,0,0,0,0,0,-0.0104,-0.0103,0,-0.0032,-0.0031,-0.003,0.0024,0.0025,0.0026,0.0026,0.0107,0.0109,0.011,0,0,0,0,0,0,0,0,0,0,0,0,0,-0.0119,-0.012,-0.0104,-0.0103,-0.0102,-0.0032,-0.0031,-0.003,0.0024,0.0025,0.0026,0.0026,0.0107,0.0108,0.011,0,0,0,0,0,0,0,0,0,0,0,0,0,-0.0088,-0.012,-0.0104,-0.0066,-0.0061,-0.0032,-0.0031,-0.003,0.0024,0.0025,0.0026,0.0027,0.0106,0.0108,0.0111,0.0107,0,0,0.0118,0.0119,0,0,0,0,0,0,0,0,-0.009,-0.0088,-0.0072,-0.0068,-0.0063,-0.0011,-0.0007,0.0017,0.0024,-0.001,0.0026,0.0027,0.0068,0.0074,0.0084,0.0111,0.0115,0.0118,0.012,0.0121,0.0121,0,0,0,0,0,0,0,-0.0092,-0.009,-0.0077,-0.0071,-0.0066,-0.0026,-0.0021,-0.0002,0.0023,-0.0007,-0.0002,0.0007,0.0071,0.0081,0.0086,0.0116,0.0118,0.012,0.0122,0.0123,0.0154,0.0153,0,0,0,0,0,0,-0.0104,-0.0093,-0.0079,-0.0074,-0.0073,-0.0027,-0.0021,-0.003,0.0023,0.0032,0.0007,0.001,0.0077,0.0083,0.0089,0.0091,0.0121,0.0123,0.0124,0.0155,0.0154,0.0153,0,0,0,0,0,0,-0.0105,-0.0104,-0.0082,-0.0079,-0.0074,-0.0028,-0.0037,-0.0029,-0.0015,0.0033,0.0042,0.0012,0.0078,0.0086,0.0099,0.0095,0.0124,0.0126,0.0155,0.0154,0.0154,0.0094,0,0,0,0,0,0,-0.0106,-0.0106,-0.0118,-0.0081,-0.0074,-0.0079,-0.0037,-0.0028,-0.001,-0.0006,0.004,0.0048,0.0079,0.0095,0.0101,0.0099,0.0128,0.0156,0.0155,0.0154,0.0096,0.0091,0.0086,0,0,0,0,0,-0.0107,-0.0135,-0.012,-0.0118,-0.0094,-0.008,-0.0074,-0.0037,-0.0011,-0.0019,0.0016,0.0047,0.0093,0.0096,0.0104,0.0102,0.0157,0.0155,0.0154,0.0099,0.0092,0.0086,0,0,0,0,0,0,-0.0141,-0.0131,-0.0114,-0.0134,-0.0113,-0.0071,-0.0071,-0.0043,-0.0021,-0.0015,0.0035,0.0045,0.0054,0.0083,0.0085,0.0107,0.0132,0.0132,0.0087,0.0081,0.0076,0.0068,0.013,0,0,0,0,0,-0.0157,-0.018,-0.015,-0.0165,-0.0157,-0.0114,-0.0102,-0.0081,-0.0052,-0.0041,-0.0006,0.0029,0.0053,0.007,0.009,0.0101,0.0151,0.0106,0.0101,0.0096,0.0094,0.0155,0.0156,0.0149,0.0149,0.0149,0,0,-0.0172,-0.0169,-0.018,-0.0175,-0.0151,-0.0152,-0.0106,-0.0099,-0.0094,-0.0037,-0.0025,0.0005,0.0049,0.006,0.0068,0.0086,0.0127,0.0094,0.009,0.0091,0.0154,0.0155,0.0156,0.0148,0.0148,0.0148,0,0,-0.0219,-0.0212,-0.0246,-0.0234,-0.0214,-0.0187,-0.0188,-0.0153,-0.0132,-0.0122,-0.0076,-0.0047,-0.0014,0.0023,0.0047,0.0025,0.0091,0.003,0.0007,0.0065,0.0067,0.0069,0.0147,0.0156,0.0035,0.0035,0.0035,0,-0.0233,-0.0269,-0.025,-0.027,-0.0258,-0.0207,-0.0221,-0.0198,-0.0163,-0.0144,-0.013,-0.0063,-0.0028,0.0008,-0.0,0.0015,0.0064,0.0027,0.006,0.0062,0.0065,0.0145,0.0156,0.0032,0.0033,0.0033,0.0033,0,-0.0303,-0.0319,-0.0333,-0.0342,-0.0331,-0.0336,-0.0296,-0.0283,-0.0247,-0.0213,-0.0179,-0.0129,-0.0082,-0.0068,-0.004,-0.0004,0.003,0.004,0.0076,0.0063,0.0148,0.016,0.0028,0.0029,0.003,0.0031,0,0,-0.0358,-0.038,-0.0383,-0.0387,-0.0367,-0.0363,-0.0353,-0.0324,-0.0306,-0.0268,-0.0238,-0.0191,-0.0151,-0.0122,-0.0076,-0.0024,0.0043,0.0011,0.0015,0.009,0.019,0.022,0.0237,0.0057,0.0059,0.006,0.0247,0,-0.0409,-0.0466,-0.0456,-0.048,-0.0493,-0.044,-0.0431,-0.0397,-0.0354,-0.0316,-0.0245,-0.0209,-0.0173,-0.0148,-0.0093,0.0,0.007,-0.0008,0.0191,0.0197,0.0226,0.025,0.0277,0.0445,0.026,0.0262,0.0263,0,-0.0476,-0.0501,-0.0547,-0.0538,-0.0536,-0.054,-0.0499,-0.0485,-0.0417,-0.0382,-0.0325,-0.0267,-0.0187,-0.0158,0.0012,-0.0041,0.0069,0.0149,0.0159,0.0214,0.0249,0.0426,0.0476,0.0594,0.0283,0.0282,0.028,0,-0.0527,-0.0555,-0.0592,-0.0592,-0.0581,-0.0579,-0.0561,-0.0508,-0.0487,-0.0419,-0.0394,-0.0292,-0.0231,-0.0103,0.006,0.004,0.0257,0.0257,0.0398,0.0403,0.048,0.0488,0.0667,0.0391,0.0391,0.039,0.039,0,-0.0585,-0.0608,-0.062,-0.0639,-0.0662,-0.0629,-0.0631,-0.0597,-0.0543,-0.0512,-0.0432,-0.0375,-0.0216,-0.0076,0.0064,0.0275,0.0272,0.0407,0.0452,0.046,0.0464,0.0612,0.0643,0.0397,0.0396,0.0394,0.0393,0,-0.0636,-0.0648,-0.0686,-0.0691,-0.0692,-0.0707,-0.0685,-0.0679,-0.0623,-0.0578,-0.0558,-0.042,-0.0235,-0.0057,0.0178,0.0292,0.0568,0.0563,0.0568,0.0609,0.0815,0.0841,0.1068,0.1149,0.0742,0.0744,0.0746,0,-0.0665,-0.0697,-0.0733,-0.0755,-0.0761,-0.0773,-0.0778,-0.0729,-0.0712,-0.0594,-0.0571,-0.0392,-0.0241,0.0106,0.0332,0.06,0.0689,0.0779,0.0736,0.0845,0.0908,0.0925,0.0977,0.0834,0.0836,0.0838,0.084,0,-0.0707,-0.0728,-0.0763,-0.082,-0.0841,-0.0859,-0.0855,-0.0852,-0.0773,-0.0698,-0.0553,-0.0419,-0.0094,0.0212,0.0532,0.0687,0.0855,0.0821,0.0942,0.1001,0.1027,0.112,0.0703,0.0855,0.0854,0.0852,0.0852,0.0851,-0.0719,-0.077,-0.0823,-0.0872,-0.0903,-0.0926,-0.0926,-0.0887,-0.0824,-0.0648,-0.0523,-0.0217,0.0121,0.0571,0.0733,0.105,0.1014,0.115,0.118,0.1195,0.1243,0.0859,0.1041,0.1041,0.104,0.104,0.1039,0,-0.0713,-0.0793,-0.0861,-0.0919,-0.0957,-0.096,-0.0957,-0.0908,-0.081,-0.0549,-0.034,0.0173,0.0526,0.0849,0.1228,0.14,0.1434,0.1486,0.1525,0.1567,0.1253,0.1223,0.1443,0.1443,0.1442,0.1442,0.1442,0.1442,-0.0706,-0.0798,-0.0858,-0.0941,-0.0977,-0.0982,-0.0971,-0.0864,-0.0668,-0.0244,0.0155,0.0464,0.0832,0.1326,0.1672,0.1714,0.1863,0.185,0.193,0.1705,0.1675,0.1647,0.1629,0.193,0.1931,0.2243,0.2246,0.2248]}],[{"header":{"parameterUnit":"m.s-1","parameterCategory":2,"la1":30.2991,"la2":30.254,"lo1":-89.0895,"lo2":-89.0444,"dy":0.0017,"dx":0.0017,"nx":28,"ny":28,"refTime":"2025-02-27T09:00:00:Z","depth":"2","parameterNumber":2,"parameterNumberName":"U-component_of_CURRENTS"},"data":[0,0,0,0,0,0,0,0,0,0,0,0,0,0,0,0,0,0,0,0,0,0,0,0,0,0,0,0,0,0,0,0,0,0,0,0,0,0,0,0,0,0,0,0,0,0,0,0,0,0,0,0,0,0,0,0,0,0,-0.2029,-0.203,0,-0.2093,-0.2093,-0.2094,-0.2102,-0.2101,-0.2101,-0.21,-0.2111,-0.2112,-0.2112,0,0,0,0,0,0,0,0,0,0,0,0,0,-0.1926,-0.1927,-0.2029,-0.203,-0.2031,-0.2092,-0.2093,-0.2094,-0.2102,-0.2101,-0.2101,-0.21,-0.2111,-0.2112,-0.2112,0,0,0,0,0,0,0,0,0,0,0,0,0,-0.1976,-0.1928,-0.2028,-0.2043,-0.2046,-0.2092,-0.2093,-0.2094,-0.2102,-0.2101,-0.21,-0.21,-0.2111,-0.2112,-0.2113,-0.2132,0,0,-0.2116,-0.2116,0,0,0,0,0,0,0,0,-0.1973,-0.198,-0.204,-0.2042,-0.2045,-0.209,-0.2061,-0.2105,-0.2102,-0.2078,-0.21,-0.2099,-0.2101,-0.2103,-0.2114,-0.2133,-0.2133,-0.2116,-0.2117,-0.2117,-0.2117,0,0,0,0,0,0,0,-0.197,-0.1977,-0.2052,-0.2041,-0.2044,-0.2051,-0.2057,-0.207,-0.209,-0.208,-0.2082,-0.2092,-0.2101,-0.2113,-0.2114,-0.2133,-0.2116,-0.2117,-0.2117,-0.2118,-0.2142,-0.2142,0,0,0,0,0,0,-0.1966,-0.1974,-0.205,-0.2054,-0.2009,-0.2054,-0.2061,-0.2075,-0.2091,-0.2094,-0.2093,-0.2092,-0.2112,-0.2113,-0.2115,-0.2125,-0.2117,-0.2118,-0.2119,-0.2142,-0.2142,-0.2142,0,0,0,0,0,0,-0.1964,-0.1973,-0.2047,-0.2017,-0.2027,-0.2056,-0.2072,-0.2076,-0.2094,-0.2101,-0.2103,-0.2106,-0.2111,-0.2113,-0.2125,-0.2126,-0.2118,-0.2119,-0.2142,-0.2142,-0.2142,-0.2155,0,0,0,0,0,0,-0.1961,-0.1972,-0.1982,-0.2017,-0.2029,-0.2079,-0.2073,-0.2078,-0.2102,-0.2102,-0.2114,-0.2114,-0.2111,-0.2123,-0.2126,-0.2127,-0.212,-0.2142,-0.2142,-0.2142,-0.2154,-0.2155,-0.2156,0,0,0,0,0,-0.1957,-0.1977,-0.1982,-0.1991,-0.2041,-0.208,-0.2086,-0.2103,-0.2103,-0.2115,-0.2117,-0.2113,-0.2125,-0.2125,-0.2128,-0.2129,-0.2142,-0.2142,-0.2142,-0.2154,-0.2155,-0.2156,0,0,0,0,0,0,-0.1927,-0.1981,-0.1987,-0.2019,-0.2047,-0.2082,-0.2098,-0.211,-0.2124,-0.2122,-0.2122,-0.2123,-0.213,-0.2131,-0.213,-0.2135,-0.213,-0.2131,-0.2138,-0.2139,-0.2139,-0.2134,-0.2121,0,0,0,0,0,-0.1928,-0.1962,-0.2002,-0.2024,-0.2042,-0.2071,-0.2089,-0.2102,-0.2121,-0.2127,-0.2133,-0.2134,-0.2134,-0.2137,-0.2139,-0.2151,-0.2135,-0.215,-0.2151,-0.2152,-0.2148,-0.2136,-0.2136,-0.2143,-0.2143,-0.2143,0,0,-0.1925,-0.1955,-0.1975,-0.2021,-0.2044,-0.207,-0.208,-0.2113,-0.2125,-0.2126,-0.2141,-0.2141,-0.2138,-0.2143,-0.2146,-0.2144,-0.2138,-0.2152,-0.2153,-0.2149,-0.2136,-0.2136,-0.2135,-0.2143,-0.2143,-0.2143,0,0,-0.1931,-0.196,-0.199,-0.2016,-0.2057,-0.2076,-0.2087,-0.2126,-0.2134,-0.2154,-0.2148,-0.215,-0.2161,-0.2154,-0.2151,-0.216,-0.2143,-0.216,-0.2162,-0.2151,-0.215,-0.2149,-0.2112,-0.2108,-0.2161,-0.2161,-0.2161,0,-0.1929,-0.1959,-0.2001,-0.2028,-0.2047,-0.2078,-0.2101,-0.2119,-0.2152,-0.2156,-0.2157,-0.2163,-0.2162,-0.216,-0.2158,-0.2162,-0.2145,-0.216,-0.2152,-0.2151,-0.215,-0.2112,-0.2107,-0.2161,-0.2161,-0.2161,-0.2161,0,-0.1947,-0.1975,-0.1993,-0.2037,-0.2063,-0.209,-0.2121,-0.214,-0.2152,-0.2164,-0.2171,-0.2172,-0.2171,-0.2171,-0.2167,-0.216,-0.2145,-0.2155,-0.215,-0.215,-0.2109,-0.2104,-0.2162,-0.2162,-0.2162,-0.2162,0,0,-0.1938,-0.1999,-0.2003,-0.2018,-0.2069,-0.209,-0.2115,-0.2143,-0.2152,-0.2172,-0.2176,-0.2176,-0.2178,-0.2174,-0.2171,-0.2162,-0.2134,-0.2155,-0.2154,-0.2117,-0.2088,-0.1998,-0.1983,-0.2146,-0.2146,-0.2146,-0.2057,0,-0.1938,-0.1979,-0.2012,-0.2041,-0.2063,-0.2098,-0.2117,-0.2143,-0.216,-0.2172,-0.2174,-0.2177,-0.2178,-0.2176,-0.2168,-0.2151,-0.2124,-0.2155,-0.2094,-0.2091,-0.2011,-0.1976,-0.1853,-0.1757,-0.2052,-0.2051,-0.205,0,-0.1933,-0.1964,-0.1994,-0.2038,-0.2051,-0.207,-0.2099,-0.2122,-0.2149,-0.2162,-0.2172,-0.2177,-0.217,-0.2169,-0.2131,-0.2154,-0.2114,-0.2095,-0.2091,-0.1999,-0.1991,-0.1808,-0.1736,-0.2041,-0.2042,-0.2043,-0.2043,0,-0.1885,-0.1944,-0.1962,-0.1979,-0.2038,-0.205,-0.2076,-0.2111,-0.2126,-0.2151,-0.2159,-0.2164,-0.2156,-0.2132,-0.2093,-0.2113,-0.2037,-0.2061,-0.1934,-0.1927,-0.1804,-0.1786,-0.2011,-0.2011,-0.2011,-0.2011,-0.2011,0,-0.1862,-0.1874,-0.194,-0.1949,-0.1965,-0.2018,-0.2032,-0.2062,-0.2099,-0.2104,-0.2144,-0.2138,-0.2147,-0.2112,-0.208,-0.1978,-0.2022,-0.1913,-0.1894,-0.1802,-0.1786,-0.2027,-0.2031,-0.2008,-0.2009,-0.2009,-0.201,0,-0.1795,-0.1842,-0.1864,-0.1927,-0.1941,-0.1948,-0.2002,-0.2011,-0.206,-0.2067,-0.2074,-0.2107,-0.2055,-0.2034,-0.198,-0.1939,-0.1869,-0.1815,-0.169,-0.1657,-0.1768,-0.1774,-0.1669,-0.1665,-0.1661,-0.1658,-0.1656,0,-0.1757,-0.1764,-0.1829,-0.1835,-0.1859,-0.1886,-0.19,-0.197,-0.1985,-0.2035,-0.2025,-0.2001,-0.1943,-0.1832,-0.1753,-0.1648,-0.1738,-0.149,-0.1505,-0.1739,-0.1732,-0.1742,-0.1752,-0.1342,-0.1337,-0.1334,-0.133,0,-0.1677,-0.1707,-0.1729,-0.175,-0.1765,-0.1786,-0.1817,-0.1827,-0.19,-0.1908,-0.1891,-0.185,-0.1744,-0.1581,-0.1461,-0.1398,-0.1505,-0.1405,-0.1673,-0.1452,-0.1425,-0.1421,-0.1442,-0.1296,-0.1299,-0.1302,-0.1304,-0.1305,-0.1603,-0.16,-0.1632,-0.1639,-0.166,-0.166,-0.1633,-0.1679,-0.1677,-0.1658,-0.1707,-0.1593,-0.1552,-0.1283,-0.119,-0.112,-0.1225,-0.1194,-0.1209,-0.1228,-0.1209,-0.1179,-0.0998,-0.1,-0.1001,-0.1002,-0.1004,0,-0.1486,-0.1503,-0.1512,-0.1515,-0.149,-0.1542,-0.1548,-0.1497,-0.1447,-0.1452,-0.1406,-0.122,-0.1088,-0.1044,-0.0871,-0.0829,-0.085,-0.0806,-0.0852,-0.0885,-0.0915,-0.0885,-0.0586,-0.0585,-0.0584,-0.0583,0,0,-0.1417,-0.1396,-0.1409,-0.1336,-0.1334,-0.1252,-0.1225,-0.1175,-0.1143,-0.1055,-0.0996,-0.1041,-0.1016,-0.0816,-0.0755,-0.0642,-0.0761,-0.0604,-0.0938,-0.1026,-0.1055,-0.1132,-0.1121,0,0,0,0,0]},{"header":{"parameterUnit":"m.s-1","parameterCategory":2,"la1":30.2991,"la2":30.254,"lo1":-89.0895,"lo2":-89.0444,"dy":0.0017,"dx":0.0017,"nx":28,"ny":28,"refTime":"2025-02-27T09:00:00:Z","depth":"2","parameterNumber":3,"parameterNumberName":"V-component_of_CURRENTS"},"data":[0,0,0,0,0,0,0,0,0,0,0,0,0,0,0,0,0,0,0,0,0,0,0,0,0,0,0,0,0,0,0,0,0,0,0,0,0,0,0,0,0,0,0,0,0,0,0,0,0,0,0,0,0,0,0,0,0,0,-0.0385,-0.0385,0,-0.0313,-0.0312,-0.0311,-0.0254,-0.0253,-0.0253,-0.0252,-0.0137,-0.0135,-0.0132,0,0,0,0,0,0,0,0,0,0,0,0,0,-0.043,-0.0429,-0.0385,-0.0385,-0.0384,-0.0313,-0.0312,-0.0311,-0.0254,-0.0253,-0.0253,-0.0252,-0.0138,-0.0135,-0.0132,0,0,0,0,0,0,0,0,0,0,0,0,0,-0.0389,-0.0429,-0.0386,-0.0347,-0.0343,-0.0313,-0.0312,-0.031,-0.0254,-0.0253,-0.0252,-0.0252,-0.0139,-0.0135,-0.0131,-0.0122,0,0,-0.0119,-0.0118,0,0,0,0,0,0,0,0,-0.0391,-0.0387,-0.0354,-0.035,-0.0345,-0.0292,-0.0285,-0.0245,-0.0254,-0.0287,-0.0252,-0.0251,-0.0186,-0.0178,-0.0166,-0.0116,-0.0111,-0.0119,-0.0117,-0.0115,-0.0114,0,0,0,0,0,0,0,-0.0394,-0.0389,-0.0356,-0.0353,-0.0348,-0.0319,-0.0312,-0.0277,-0.024,-0.0284,-0.028,-0.0273,-0.0183,-0.017,-0.0162,-0.011,-0.0119,-0.0116,-0.0113,-0.0112,-0.002,-0.002,0,0,0,0,0,0,-0.0408,-0.0392,-0.0358,-0.0354,-0.0368,-0.0319,-0.0311,-0.0309,-0.0241,-0.0231,-0.0274,-0.0271,-0.0177,-0.0167,-0.0158,-0.0126,-0.0115,-0.0111,-0.0109,-0.0021,-0.002,-0.002,0,0,0,0,0,0,-0.0409,-0.0406,-0.0361,-0.0372,-0.0364,-0.0319,-0.0317,-0.0308,-0.0292,-0.0234,-0.0223,-0.0266,-0.0176,-0.0164,-0.0126,-0.0121,-0.0109,-0.0106,-0.0021,-0.002,-0.002,-0.0072,0,0,0,0,0,0,-0.0411,-0.0407,-0.041,-0.0373,-0.0364,-0.0345,-0.0317,-0.0307,-0.0289,-0.0285,-0.0224,-0.0212,-0.0174,-0.0132,-0.0122,-0.0116,-0.0103,-0.0021,-0.0021,-0.002,-0.007,-0.0073,-0.0076,0,0,0,0,0,-0.0413,-0.0423,-0.0411,-0.0406,-0.037,-0.0345,-0.0338,-0.0302,-0.029,-0.0285,-0.0244,-0.0214,-0.0124,-0.0129,-0.0117,-0.011,-0.0021,-0.0021,-0.002,-0.0069,-0.0073,-0.0076,0,0,0,0,0,0,-0.045,-0.0417,-0.0403,-0.0404,-0.0377,-0.0336,-0.0331,-0.0308,-0.0273,-0.0268,-0.0214,-0.02,-0.0167,-0.0133,-0.014,-0.0083,-0.0067,-0.0064,-0.0108,-0.0111,-0.0114,-0.0127,-0.01,0,0,0,0,0,-0.046,-0.0454,-0.042,-0.0421,-0.0411,-0.0373,-0.0359,-0.0335,-0.03,-0.0283,-0.0241,-0.0196,-0.0158,-0.0131,-0.0095,-0.0064,-0.0025,-0.005,-0.0053,-0.0056,-0.0059,-0.0004,-0.0002,-0.002,-0.002,-0.002,0,0,-0.0473,-0.0457,-0.0452,-0.0428,-0.0406,-0.0393,-0.0362,-0.0346,-0.033,-0.0277,-0.0246,-0.0208,-0.0154,-0.012,-0.0101,-0.0088,-0.003,-0.0056,-0.0059,-0.006,-0.0003,-0.0002,-0.0,-0.002,-0.002,-0.002,0,0,-0.0499,-0.0485,-0.0487,-0.0468,-0.0439,-0.0413,-0.0411,-0.0371,-0.0347,-0.0316,-0.0275,-0.0235,-0.0177,-0.0134,-0.0105,-0.0103,-0.0053,-0.0093,-0.011,-0.0057,-0.0055,-0.0053,0.0001,0.0008,-0.0088,-0.0088,-0.0088,0,-0.0515,-0.0515,-0.0485,-0.0482,-0.0469,-0.0426,-0.0425,-0.0395,-0.0346,-0.0328,-0.0313,-0.0226,-0.0182,-0.0132,-0.0131,-0.0109,-0.0074,-0.0102,-0.0061,-0.0058,-0.0055,-0.0001,0.0008,-0.009,-0.009,-0.009,-0.0089,0,-0.054,-0.0537,-0.0539,-0.0518,-0.0501,-0.0494,-0.0452,-0.043,-0.04,-0.0365,-0.0317,-0.0257,-0.0203,-0.0183,-0.0155,-0.0112,-0.0092,-0.0078,-0.0055,-0.0057,0.0001,0.0011,-0.0094,-0.0093,-0.0092,-0.0091,0,0,-0.0578,-0.0559,-0.0558,-0.0556,-0.052,-0.051,-0.0486,-0.045,-0.0434,-0.038,-0.0351,-0.0284,-0.0252,-0.0218,-0.0173,-0.0126,-0.0072,-0.0099,-0.0095,-0.0051,0.0046,0.0064,0.0077,-0.0053,-0.0052,-0.0051,0.0079,0,-0.0604,-0.0615,-0.0592,-0.0593,-0.0595,-0.0549,-0.0531,-0.0492,-0.045,-0.041,-0.0341,-0.0298,-0.0263,-0.0238,-0.0186,-0.0105,-0.0049,-0.0108,0.0046,0.0051,0.0063,0.0088,0.0065,0.0178,0.0089,0.009,0.0092,0,-0.0633,-0.0636,-0.065,-0.0632,-0.0628,-0.0621,-0.0586,-0.0562,-0.0494,-0.046,-0.0403,-0.0347,-0.027,-0.0243,-0.0098,-0.014,-0.0053,0.0014,0.0021,0.0061,0.0087,0.0166,0.02,0.0109,0.0107,0.0106,0.0105,0,-0.0679,-0.0673,-0.0689,-0.0683,-0.0657,-0.0653,-0.0635,-0.0581,-0.0559,-0.0491,-0.0466,-0.0369,-0.0313,-0.0203,-0.0067,-0.008,0.0095,0.01,0.0205,0.0207,0.0231,0.0233,0.0211,0.0211,0.0211,0.021,0.021,0,-0.0715,-0.0723,-0.0714,-0.0722,-0.0737,-0.07,-0.0698,-0.0664,-0.061,-0.058,-0.0499,-0.0446,-0.0302,-0.0185,-0.0069,0.01,0.0103,0.021,0.0245,0.0213,0.0211,0.0181,0.0176,0.0215,0.0214,0.0213,0.0212,0,-0.0757,-0.0751,-0.0769,-0.076,-0.0761,-0.0772,-0.0749,-0.0741,-0.0685,-0.0642,-0.0621,-0.0493,-0.0338,-0.0186,0.0011,0.0105,0.0259,0.0322,0.0273,0.0299,0.0337,0.0328,0.0449,0.0451,0.0453,0.0454,0.0455,0,-0.0779,-0.0795,-0.0809,-0.0827,-0.0827,-0.0834,-0.0837,-0.0788,-0.077,-0.0661,-0.064,-0.0486,-0.0359,-0.0075,0.0114,0.0328,0.0325,0.0427,0.04,0.0341,0.0363,0.0351,0.034,0.0419,0.0419,0.042,0.042,0,-0.0819,-0.0826,-0.0841,-0.0883,-0.0902,-0.0914,-0.0909,-0.0905,-0.0829,-0.0763,-0.0639,-0.0526,-0.026,-0.0027,0.023,0.0349,0.0383,0.0445,0.0419,0.0349,0.0319,0.0338,0.0327,0.0425,0.0425,0.0424,0.0424,0.0424,-0.0847,-0.0871,-0.0896,-0.0932,-0.0959,-0.0979,-0.0979,-0.0944,-0.089,-0.0761,-0.0642,-0.0435,-0.0236,0.0142,0.0312,0.0465,0.0462,0.0504,0.0499,0.0495,0.0456,0.0429,0.0549,0.0549,0.0549,0.0549,0.0549,0,-0.0876,-0.0901,-0.0942,-0.0981,-0.1014,-0.1014,-0.101,-0.0974,-0.0894,-0.0748,-0.0586,-0.0315,-0.0056,0.0149,0.0395,0.0536,0.0515,0.0555,0.0499,0.0494,0.0489,0.0447,0.0539,0.054,0.054,0.054,0,0,-0.0895,-0.0936,-0.0953,-0.1012,-0.1038,-0.1053,-0.1044,-0.0967,-0.0858,-0.0684,-0.0509,-0.0289,-0.0042,0.0134,0.0304,0.0427,0.0419,0.0436,0.0429,0.0336,0.0329,0.0448,0.0375,0,0,0,0,0]}],[{"header":{"parameterUnit":"m.s-1","parameterCategory":2,"la1":30.2991,"la2":30.254,"lo1":-89.0895,"lo2":-89.0444,"dy":0.0017,"dx":0.0017,"nx":28,"ny":28,"refTime":"2025-02-27T09:00:00:Z","depth":"4","parameterNumber":2,"parameterNumberName":"U-component_of_CURRENTS"},"data":[0,0,0,0,0,0,0,0,0,0,0,0,0,0,0,0,0,0,0,0,0,0,0,0,0,0,0,0,0,0,0,0,0,0,0,0,0,0,0,0,0,0,0,0,0,0,0,0,0,0,0,0,0,0,0,0,0,0,-0.1342,-0.1343,0,-0.1411,-0.1412,-0.1413,-0.1445,-0.1445,-0.1446,-0.1446,-0.1557,-0.156,-0.1562,0,0,0,0,0,0,0,0,0,0,0,0,0,-0.1232,-0.1234,-0.1342,-0.1343,-0.1344,-0.1411,-0.1412,-0.1413,-0.1445,-0.1445,-0.1446,-0.1446,-0.1556,-0.1559,-0.1563,0,0,0,0,0,0,0,0,0,0,0,0,0,-0.1287,-0.1234,-0.1342,-0.137,-0.1373,-0.1411,-0.1412,-0.1413,-0.1445,-0.1445,-0.1446,-0.1446,-0.1555,-0.1559,-0.1563,-0.1586,0,0,-0.1576,-0.1578,0,0,0,0,0,0,0,0,-0.1284,-0.1291,-0.1365,-0.1368,-0.1372,-0.1421,-0.1414,-0.1474,-0.1445,-0.1416,-0.1446,-0.1446,-0.1516,-0.1524,-0.1533,-0.1591,-0.1596,-0.1577,-0.1579,-0.1581,-0.1582,0,0,0,0,0,0,0,-0.128,-0.1288,-0.1368,-0.1366,-0.137,-0.1377,-0.1385,-0.1425,-0.1464,-0.1419,-0.1422,-0.1432,-0.1518,-0.1529,-0.1536,-0.1597,-0.1576,-0.158,-0.1583,-0.1585,-0.1721,-0.1722,0,0,0,0,0,0,-0.1275,-0.1284,-0.1366,-0.137,-0.1329,-0.1379,-0.1387,-0.1404,-0.1463,-0.1472,-0.1432,-0.1433,-0.1522,-0.1531,-0.1541,-0.1621,-0.1581,-0.1585,-0.1587,-0.172,-0.1721,-0.1722,0,0,0,0,0,0,-0.1273,-0.1282,-0.1363,-0.133,-0.1341,-0.1381,-0.1399,-0.1405,-0.144,-0.1472,-0.1482,-0.1463,-0.1522,-0.1535,-0.1601,-0.1624,-0.1587,-0.1591,-0.1718,-0.172,-0.1722,-0.1751,0,0,0,0,0,0,-0.1269,-0.1281,-0.1301,-0.133,-0.1342,-0.1407,-0.1399,-0.1406,-0.1446,-0.1449,-0.1503,-0.1511,-0.1523,-0.1594,-0.1605,-0.1629,-0.1594,-0.1717,-0.1719,-0.1721,-0.1748,-0.1753,-0.1757,0,0,0,0,0,-0.1265,-0.1289,-0.1301,-0.1312,-0.1365,-0.1408,-0.1416,-0.1443,-0.1447,-0.1473,-0.1508,-0.1511,-0.1614,-0.16,-0.1612,-0.1637,-0.1716,-0.1719,-0.1721,-0.1746,-0.1752,-0.1757,0,0,0,0,0,0,-0.1248,-0.1296,-0.1309,-0.1346,-0.1385,-0.1415,-0.1442,-0.1458,-0.1504,-0.1516,-0.1536,-0.1549,-0.161,-0.1623,-0.1607,-0.168,-0.1661,-0.1666,-0.1676,-0.1682,-0.1686,-0.1672,-0.1598,0,0,0,0,0,-0.1255,-0.129,-0.133,-0.1363,-0.1383,-0.1417,-0.1441,-0.1465,-0.1503,-0.1523,-0.1561,-0.1596,-0.1625,-0.1655,-0.1686,-0.1739,-0.1717,-0.1759,-0.1764,-0.1767,-0.1763,-0.1757,-0.176,-0.173,-0.173,-0.173,0,0,-0.1256,-0.1288,-0.1308,-0.1363,-0.1393,-0.1431,-0.1433,-0.1483,-0.1516,-0.153,-0.1597,-0.162,-0.1643,-0.1694,-0.1722,-0.1713,-0.1762,-0.177,-0.1773,-0.1767,-0.176,-0.1762,-0.1765,-0.1732,-0.1731,-0.1731,0,0,-0.1274,-0.1308,-0.1343,-0.138,-0.1438,-0.146,-0.148,-0.1533,-0.156,-0.1625,-0.1631,-0.1669,-0.1735,-0.1744,-0.1756,-0.1806,-0.1784,-0.182,-0.1837,-0.1831,-0.1833,-0.1835,-0.1794,-0.1792,-0.1824,-0.1824,-0.1824,0,-0.1275,-0.1324,-0.136,-0.1404,-0.1434,-0.1475,-0.1514,-0.1549,-0.1619,-0.1641,-0.1655,-0.1726,-0.1751,-0.1784,-0.1798,-0.1815,-0.1797,-0.1815,-0.1835,-0.1837,-0.1837,-0.1796,-0.1792,-0.1826,-0.1825,-0.1825,-0.1825,0,-0.1313,-0.1361,-0.1386,-0.1452,-0.149,-0.1535,-0.1582,-0.163,-0.1666,-0.1693,-0.1751,-0.1782,-0.1816,-0.183,-0.1833,-0.1854,-0.1832,-0.1839,-0.1818,-0.1842,-0.1796,-0.1793,-0.1828,-0.1827,-0.1827,-0.1826,0,0,-0.1285,-0.1392,-0.1403,-0.144,-0.152,-0.1551,-0.1612,-0.1666,-0.1697,-0.1761,-0.1793,-0.1842,-0.1853,-0.1865,-0.1873,-0.1872,-0.186,-0.1862,-0.1861,-0.1813,-0.1822,-0.1697,-0.168,-0.1873,-0.1873,-0.1873,-0.178,0,-0.1304,-0.1386,-0.1435,-0.1507,-0.1548,-0.1603,-0.1649,-0.1705,-0.175,-0.1794,-0.182,-0.1859,-0.1867,-0.1884,-0.1886,-0.1874,-0.1854,-0.1882,-0.1813,-0.181,-0.169,-0.1674,-0.1874,-0.1777,-0.1777,-0.1776,-0.1775,0,-0.1314,-0.1372,-0.1449,-0.1534,-0.1555,-0.1603,-0.1672,-0.1721,-0.1783,-0.1817,-0.1857,-0.1878,-0.1896,-0.1895,-0.1873,-0.1892,-0.1855,-0.1835,-0.1831,-0.1701,-0.1678,-0.1754,-0.1768,-0.1769,-0.1769,-0.177,-0.177,0,-0.1265,-0.1371,-0.1432,-0.1465,-0.157,-0.1609,-0.1659,-0.1729,-0.1764,-0.1829,-0.1853,-0.1884,-0.1895,-0.1876,-0.1841,-0.1861,-0.179,-0.1811,-0.1654,-0.1644,-0.1773,-0.1773,-0.1772,-0.1772,-0.1773,-0.1773,-0.1773,0,-0.1249,-0.1298,-0.1419,-0.1454,-0.1511,-0.159,-0.1648,-0.17,-0.1768,-0.1793,-0.1858,-0.1862,-0.1893,-0.1863,-0.183,-0.1713,-0.1778,-0.1636,-0.161,-0.1786,-0.1788,-0.1769,-0.177,-0.1769,-0.177,-0.1771,-0.1771,0,-0.1183,-0.127,-0.1342,-0.146,-0.1495,-0.1534,-0.1635,-0.1665,-0.1743,-0.1774,-0.1793,-0.1841,-0.1793,-0.1783,-0.1734,-0.1675,-0.1595,-0.1534,-0.1689,-0.1677,-0.1454,-0.1458,-0.1349,-0.1344,-0.134,-0.1336,-0.1333,0,-0.1154,-0.1191,-0.1325,-0.1362,-0.1421,-0.1495,-0.1535,-0.1636,-0.1664,-0.1737,-0.173,-0.1723,-0.1731,-0.1543,-0.1563,-0.1461,-0.1446,-0.1396,-0.1452,-0.1423,-0.141,-0.1421,-0.143,-0.1326,-0.1325,-0.1323,-0.1322,0,-0.1085,-0.1148,-0.1209,-0.129,-0.1349,-0.1402,-0.147,-0.1478,-0.1574,-0.1659,-0.1606,-0.1563,-0.1496,-0.1444,-0.1362,-0.1305,-0.1434,-0.135,-0.136,-0.1412,-0.1394,-0.1387,-0.1402,-0.1307,-0.1309,-0.1311,-0.1311,0,-0.1022,-0.1047,-0.1135,-0.1192,-0.1261,-0.1279,-0.1336,-0.1355,-0.139,-0.1478,-0.1449,-0.1439,-0.1475,-0.1359,-0.1292,-0.1214,-0.1203,-0.1176,-0.1195,-0.1212,-0.1211,-0.1171,-0.0972,0,0,0,0,0,-0.0942,-0.0966,-0.1022,-0.1082,-0.1147,-0.1182,-0.1272,-0.1332,-0.1425,-0.1343,-0.1392,-0.132,-0.1223,-0.1225,-0.1109,-0.1225,-0.1209,-0.1088,-0.119,-0.1222,-0.124,-0.1252,0,0,0,0,0,0,-0.0894,-0.0941,-0.0984,-0.0972,-0.0985,-0.1036,-0.1086,-0.1157,-0.1125,-0.1218,-0.1163,-0.1231,-0.1146,-0.1244,-0.1074,-0.1071,-0.1106,-0.1092,-0.1088,-0.1212,-0.1228,-0.1242,-0.1261,0,0,0,0,0]},{"header":{"parameterUnit":"m.s-1","parameterCategory":2,"la1":30.2991,"la2":30.254,"lo1":-89.0895,"lo2":-89.0444,"dy":0.0017,"dx":0.0017,"nx":28,"ny":28,"refTime":"2025-02-27T09:00:00:Z","depth":"4","parameterNumber":3,"parameterNumberName":"V-component_of_CURRENTS"},"data":[0,0,0,0,0,0,0,0,0,0,0,0,0,0,0,0,0,0,0,0,0,0,0,0,0,0,0,0,0,0,0,0,0,0,0,0,0,0,0,0,0,0,0,0,0,0,0,0,0,0,0,0,0,0,0,0,0,0,-0.032,-0.032,0,-0.0284,-0.0283,-0.0283,-0.0255,-0.0255,-0.0255,-0.0255,-0.0172,-0.017,-0.0168,0,0,0,0,0,0,0,0,0,0,0,0,0,-0.0339,-0.0339,-0.032,-0.032,-0.0319,-0.0284,-0.0283,-0.0282,-0.0255,-0.0255,-0.0255,-0.0255,-0.0172,-0.017,-0.0167,0,0,0,0,0,0,0,0,0,0,0,0,0,-0.0319,-0.0339,-0.032,-0.0302,-0.03,-0.0284,-0.0283,-0.0282,-0.0256,-0.0255,-0.0255,-0.0255,-0.0173,-0.017,-0.0167,-0.0154,0,0,-0.0158,-0.0156,0,0,0,0,0,0,0,0,-0.032,-0.0318,-0.0305,-0.0303,-0.0301,-0.0274,-0.0259,-0.0237,-0.0256,-0.0272,-0.0255,-0.0255,-0.0202,-0.0197,-0.019,-0.015,-0.0146,-0.0157,-0.0156,-0.0154,-0.0153,0,0,0,0,0,0,0,-0.0322,-0.032,-0.0305,-0.0305,-0.0302,-0.0286,-0.0283,-0.0255,-0.0238,-0.027,-0.0268,-0.0265,-0.0201,-0.0193,-0.0188,-0.0145,-0.0158,-0.0155,-0.0153,-0.0152,-0.0068,-0.0068,0,0,0,0,0,0,-0.0329,-0.0321,-0.0306,-0.0304,-0.0311,-0.0286,-0.0283,-0.0283,-0.0239,-0.0233,-0.0266,-0.0264,-0.0199,-0.0192,-0.0185,-0.0157,-0.0154,-0.0151,-0.015,-0.0068,-0.0068,-0.0067,0,0,0,0,0,0,-0.033,-0.0328,-0.0308,-0.0312,-0.0308,-0.0287,-0.0286,-0.0282,-0.0277,-0.0236,-0.0229,-0.0265,-0.0198,-0.0189,-0.016,-0.0154,-0.015,-0.0147,-0.0069,-0.0068,-0.0068,-0.0106,0,0,0,0,0,0,-0.0331,-0.0329,-0.0334,-0.0313,-0.0308,-0.0301,-0.0286,-0.0282,-0.0275,-0.0273,-0.0233,-0.0225,-0.0197,-0.0165,-0.0157,-0.0149,-0.0145,-0.0069,-0.0068,-0.0068,-0.0106,-0.0107,-0.0109,0,0,0,0,0,-0.0331,-0.034,-0.0335,-0.0333,-0.0316,-0.0302,-0.0298,-0.0281,-0.0276,-0.0275,-0.0246,-0.0226,-0.0154,-0.0162,-0.0153,-0.0144,-0.007,-0.0069,-0.0068,-0.0105,-0.0107,-0.0108,0,0,0,0,0,0,-0.0354,-0.0337,-0.0331,-0.0335,-0.0321,-0.0297,-0.0298,-0.0286,-0.0264,-0.0262,-0.0224,-0.0214,-0.0186,-0.0159,-0.0169,-0.0117,-0.0107,-0.0105,-0.0139,-0.014,-0.0142,-0.0154,-0.0142,0,0,0,0,0,-0.0362,-0.0363,-0.0343,-0.0347,-0.0343,-0.0322,-0.0316,-0.0304,-0.0281,-0.0272,-0.0242,-0.0208,-0.0175,-0.0155,-0.0125,-0.0097,-0.0071,-0.0084,-0.0086,-0.0087,-0.009,-0.0043,-0.0041,-0.0065,-0.0065,-0.0065,0,0,-0.0372,-0.0364,-0.0365,-0.0352,-0.0342,-0.0336,-0.0318,-0.0312,-0.0303,-0.0265,-0.0245,-0.0216,-0.017,-0.014,-0.0125,-0.0117,-0.0067,-0.0086,-0.0088,-0.009,-0.0042,-0.004,-0.0038,-0.0064,-0.0064,-0.0064,0,0,-0.0391,-0.0387,-0.0392,-0.0382,-0.0369,-0.0353,-0.0353,-0.033,-0.0317,-0.0294,-0.0263,-0.0229,-0.0184,-0.0147,-0.0122,-0.0112,-0.0081,-0.0103,-0.0115,-0.007,-0.0068,-0.0066,-0.0034,-0.0029,-0.0099,-0.0099,-0.0099,0,-0.0405,-0.0408,-0.0392,-0.0392,-0.0388,-0.0362,-0.0364,-0.0345,-0.0314,-0.0301,-0.0292,-0.0221,-0.0184,-0.0138,-0.0135,-0.0115,-0.0092,-0.0115,-0.0073,-0.007,-0.0067,-0.0035,-0.0029,-0.0101,-0.0101,-0.01,-0.01,0,-0.0423,-0.0426,-0.043,-0.042,-0.0412,-0.0411,-0.0383,-0.0371,-0.0352,-0.0327,-0.0288,-0.0238,-0.0194,-0.0174,-0.0151,-0.011,-0.0103,-0.0086,-0.0073,-0.0067,-0.0034,-0.0027,-0.0103,-0.0103,-0.0102,-0.0102,0,0,-0.0447,-0.0444,-0.0445,-0.0448,-0.0428,-0.0424,-0.0407,-0.0383,-0.0373,-0.0334,-0.0312,-0.0251,-0.0227,-0.0197,-0.0159,-0.0118,-0.0077,-0.0099,-0.0096,-0.0076,0.0011,-0.0003,0.0004,-0.0057,-0.0056,-0.0055,0.0023,0,-0.0466,-0.0482,-0.0468,-0.0477,-0.0481,-0.0454,-0.0441,-0.0415,-0.0385,-0.0357,-0.0297,-0.0263,-0.0233,-0.0213,-0.0167,-0.0101,-0.0059,-0.0101,0.001,0.0013,-0.0006,0.0012,-0.0051,0.0029,0.0031,0.0032,0.0033,0,-0.0482,-0.0492,-0.0511,-0.0509,-0.0508,-0.0509,-0.0489,-0.0473,-0.0421,-0.0397,-0.0349,-0.0305,-0.0238,-0.0215,-0.0099,-0.013,-0.0066,-0.0013,-0.0008,-0.0003,0.0013,0.0027,0.0047,0.0046,0.0045,0.0044,0.0043,0,-0.051,-0.0518,-0.0539,-0.0539,-0.0532,-0.0536,-0.0528,-0.0491,-0.0476,-0.0424,-0.0406,-0.0323,-0.0278,-0.019,-0.0084,-0.009,0.0042,0.0052,0.0102,0.0102,0.0107,0.0104,0.0137,0.0137,0.0137,0.0137,0.0136,0,-0.0529,-0.0545,-0.056,-0.0572,-0.0595,-0.0574,-0.0583,-0.056,-0.0522,-0.05,-0.0434,-0.0391,-0.027,-0.018,-0.0089,0.0026,0.0043,0.0102,0.0125,0.0088,0.0082,0.0112,0.0108,0.0139,0.0139,0.0138,0.0138,0,-0.0549,-0.056,-0.0588,-0.0602,-0.0612,-0.0629,-0.0629,-0.0626,-0.0588,-0.0556,-0.054,-0.0435,-0.0316,-0.0197,-0.0041,0.0019,0.0131,0.017,0.0114,0.0132,0.016,0.0153,0.0228,0.0229,0.0229,0.0229,0.0229,0,-0.0559,-0.0578,-0.062,-0.0647,-0.066,-0.0683,-0.0694,-0.0666,-0.0653,-0.0574,-0.0554,-0.044,-0.0358,-0.0147,-0.0031,0.0135,0.0159,0.0204,0.0187,0.0156,0.0172,0.0164,0.0157,0.023,0.023,0.023,0.023,0,-0.0576,-0.0599,-0.0624,-0.0683,-0.0716,-0.0739,-0.0749,-0.0741,-0.069,-0.0661,-0.0542,-0.0426,-0.0292,-0.0136,-0.0011,0.0109,0.0164,0.0206,0.0207,0.0191,0.0159,0.0172,0.0165,0.023,0.023,0.023,0.023,0,-0.0589,-0.0616,-0.0659,-0.0704,-0.0753,-0.0775,-0.0778,-0.0739,-0.0711,-0.0613,-0.0571,-0.0417,-0.0319,-0.0149,-0.0029,0.0079,0.0103,0.0127,0.0132,0.0133,0.0075,0.0018,0.007,0,0,0,0,0,-0.0593,-0.0624,-0.0674,-0.0723,-0.0772,-0.0794,-0.08,-0.0788,-0.074,-0.0656,-0.0606,-0.0471,-0.0272,-0.0181,-0.0073,-0.005,0.0097,0.0076,0.012,0.0234,0.0234,0.0181,0,0,0,0,0,0,-0.0597,-0.0646,-0.0671,-0.0727,-0.0761,-0.0802,-0.0807,-0.0777,-0.0715,-0.0651,-0.0537,-0.046,-0.0267,-0.033,-0.0073,-0.0041,-0.0003,0.0175,0.0177,0.0235,0.0234,0.0233,0.0179,0,0,0,0,0]}]]